Starlink 6357

operational
NORAD ID: 56783 Int'l Des: 2023-078 Owner: SPXS Country: US Constellation: starlink
LEOCIRCULAR

关于 Starlink 6357

正在加载描述...

实时位置

正在加载3D地球...

即将过境

高度历史

Altitude vs Time

uPlot chart will show altitude changes over time

两行轨道根数

1 56783U 23078S 25349.92011690 -.00000326 00000-0 -19489-4 0 9998
2 56783 69.9982 175.7468 0002926 270.6589 89.4235 14.98333186140628
Epoch: Dec 15, 2025 • Age: 13 hours

当前状态

高度 589.7 km
速度 7.57 km/s
星下点 -51.32°S, 97.56°W
发射日期 May 31, 2023
运行时间 2.5 years
类型 internet

技术详情

分类 Payload
质量 305.00 kg
干质量 290.00 kg
总质量 305.00 kg
长度 0.20 m
直径 2.80 m
跨度 9.00 m
形状 Box + pan
制造商 SPXS
平台类型 Starlink
阶段状态 In Orbit
所有者/国家 SPXS/US

大型星座

Loading constellations...